Weather History for NZCH - October, 2012

Change the Weather History Date:

Wednesday, October 31, 2012

  Actual Average Record
Temperature  
Mean Temperature 56 °F -  
Max Temperature 66 °F 62 °F 78 °F (2011)
Min Temperature 46 °F 43 °F 33 °F (2008)
Degree Days  
Heating Degree Days 9    
Growing Degree Days 6 (Base 50)    
Moisture  
Dew Point 50 °F    
Average Humidity 86    
Maximum Humidity 100    
Minimum Humidity 60    
Precipitation  
Precipitation 0.00 in - - ()
Sea Level Pressure  
Sea Level Pressure 29.82 in    
Wind  
Wind Speed 4 mph ()    
Max Wind Speed 14 mph    
Max Gust Speed -    
Visibility 2.9 miles    
Events Fog    
Averages and records for this station are not official NWS values.
T = Trace of Precipitation, MM = Missing Value Source: Averaged Metar Reports

Daily Weather History Graph

Daily Weather History Graph

Search for Another Location

Airport or City:

Trip Planner

Search our weather history database for the weather conditions in past years. The results will help you decide how hot, cold, wet, or windy it might be!

Date:

Astronomy

Oct. 31, 2012 Rise Set
Actual Time 6:13 AM NZDT 8:14 PM NZDT
Civil Twilight 5:42 AM NZDT 8:45 PM NZDT
Nautical Twilight 5:04 AM NZDT 9:23 PM NZDT
Astronomical Twilight 4:23 AM NZDT 10:05 PM NZDT
Moon 9:37 PM NZDT (10/31) 6:40 AM NZDT (10/31)
Length of Visible Light 15h 02m
Length of Day
14h 00m
Full, 99% of the Moon is Illuminated
Oct 31
Full
Nov 7
Last Quarter
Nov 14
New
Nov 21
First Quarter
Nov 29
Full

Hourly Weather History & Observations

Time (NZDT) Temp. Windchill Dew Point Humidity Pressure Visibility Wind Dir Wind Speed Gust Speed Precip Events Conditions
12:00 AM 46.4 °F 45.2 °F 44.6 °F 93% 29.86 in 6.2 mi WNW 3.5 mph - N/A   Scattered Clouds
12:35 AM 50.0 °F - 48.2 °F 94% 29.86 in 1.2 mi WNW 2.3 mph - N/A   Mostly Cloudy
1:00 AM 50.0 °F - 50.0 °F 100% 29.86 in 0.9 mi West 2.3 mph - N/A   Mostly Cloudy
2:00 AM 50.0 °F - 50.0 °F 100% 29.83 in 0.9 mi SW 1.2 mph - N/A Fog Fog
3:00 AM 50.0 °F - 48.2 °F 94% 29.83 in 0.9 mi NNW 3.5 mph - N/A Fog Fog
4:00 AM 48.2 °F - 48.2 °F 100% 29.80 in 0.5 mi WNW 2.3 mph - N/A Fog Fog
5:00 AM 46.4 °F - 46.4 °F 100% 29.77 in 0.5 mi NNE 2.3 mph - N/A Fog Fog
6:00 AM 46.4 °F - 46.4 °F 100% 29.77 in 0.4 mi ENE 1.2 mph - N/A Fog Fog
7:00 AM 46.4 °F - 46.4 °F 100% 29.77 in 0.4 mi NW 2.3 mph - N/A Fog Fog
8:00 AM 46.4 °F - 46.4 °F 100% 29.77 in 0.4 mi West 1.2 mph - N/A Fog Fog
9:00 AM 48.2 °F - 48.2 °F 100% 29.77 in 0.4 mi ESE 3.5 mph - N/A Fog Fog
10:00 AM 53.6 °F - 51.8 °F 94% 29.77 in 5.0 mi SSE 1.2 mph - N/A Fog Fog
11:00 AM 60.8 °F - 53.6 °F 77% 29.77 in 6.2 mi South 8.1 mph - N/A   Partly Cloudy
12:00 PM 60.8 °F - 51.8 °F 72% 29.77 in 6.2 mi South 12.7 mph - N/A   Partly Cloudy
1:00 PM 62.6 °F - 53.6 °F 72% 29.80 in 6.2 mi SSW 13.8 mph - N/A   Scattered Clouds
2:00 PM 64.4 °F - 51.8 °F 64% 29.80 in 6.2 mi SSW 8.1 mph - N/A   Partly Cloudy
3:00 PM 66.2 °F - 51.8 °F 60% 29.80 in - SW 4.6 mph - N/A   Clear
4:00 PM 66.2 °F - 53.6 °F 64% 29.80 in - NE 8.1 mph - N/A   Clear
5:00 PM 64.4 °F - 53.6 °F 68% 29.80 in - ENE 6.9 mph - N/A   Clear
6:00 PM 60.8 °F - 53.6 °F 77% 29.80 in - NE 10.4 mph - N/A   Clear
7:00 PM 59.0 °F - 51.8 °F 77% 29.80 in - NE 9.2 mph - N/A   Clear
8:00 PM 57.2 °F - 50.0 °F 77% 29.86 in - SE 5.8 mph - N/A   Clear
9:00 PM 53.6 °F - 46.4 °F 77% 29.86 in - SSE 3.5 mph - N/A   Clear
10:00 PM 51.8 °F - 50.0 °F 94% 29.95 in - NNW 10.4 mph - N/A   Clear
11:00 PM 51.8 °F - 48.2 °F 88% 29.95 in 6.2 mi NW 8.1 mph - N/A   Scattered Clouds